Location: Ethel Rock
(53.4667°N, 4.5667°W)
Time: 03:01:29
(UTC+00:00)

Daily predictions for brighter satellites

Satellite Brightness Start Highest point End
(mag) Time Altitude Azimuth Time Altitude Azimuth Time Altitude Azimuth
SL-16 R/B 4.4 02:13:34 21° NNE 02:13:34 21° NNE 02:15:21 10° NNE
USA 234 4.3 02:19:14 10° ENE 02:23:09 38° ENE 02:23:09 38° ENE
ADEOS II 4.1 02:40:27 10° NNE 02:42:31 24° NNE 02:42:31 24° NNE
Resurs 1-4 Rocket 4.3 02:48:28 10° N 02:49:58 19° N 02:49:58 19° N
CZ-2D R/B 4.3 02:54:06 10° N 02:55:28 18° N 02:55:28 18° N
ARIANE 5 R/B 4.0 03:03:48 10° NNE 03:06:40 32° NE 03:06:40 32° NE
Cosmos 2333 Rocket 4.4 03:14:51 15° NNW 03:14:56 15° NNW 03:18:08 10° NNE
Cosmos 2237 Rocket 4.1 03:32:08 18° NNW 03:32:08 18° NNW 03:35:17 10° NNE
IDEFIX/ARIANE 42P 3.2 03:29:23 10° NNE 03:33:27 53° NE 03:33:27 53° NE
Cosmos 1697 Rocket 4.2 03:33:46 15° NNW 03:37:52 34° NE 03:43:00 10° ESE
Spot 4 Rocket 4.4 03:35:27 10° NNE 03:39:59 60° ENE 03:39:59 60° ENE
Cosmos 44 Rocket 3.9 03:44:44 57° NE 03:44:44 57° NE 03:49:41 10° ESE
Cosmos 1943 3.7 03:46:51 49° N 03:46:51 49° N 03:51:19 10° NNE
Cosmos 1634 Rocket 4.0 03:40:24 10° N 03:46:47 82° ENE 03:53:07 10° SSE
NOSS 3-2 (A) 4.3 03:51:41 33° SSE 03:53:36 42° ESE 03:59:43 10° NE
SL-16 R/B 3.8 03:55:27 23° NNW 03:55:27 23° NNW 03:59:16 10° NNE
Cosmos 1980 Rocket 3.9 03:53:42 10° NNW 03:58:35 29° NE 04:03:27 10° E
Lacrosse 4 Rocket 4.3 03:58:22 10° SE 04:00:09 13° ESE 04:01:57 10° E
Geosat 3.9 03:55:27 10° SE 04:00:29 81° NE 04:00:32 81° NE
CZ-2C R/B 3.4 03:57:27 10° NNE 04:02:20 45° E 04:05:44 18° SSE
USA 234 3.2 04:02:22 10° ENE 04:08:55 73° NNW 04:10:29 53° WNW
NOSS 3-3 (A) 4.4 04:14:22 44° WNW 04:16:44 62° SW 04:24:52 10° SSE
NOSS 3-3 (C) 4.4 04:14:34 45° WNW 04:16:50 62° SW 04:24:52 10° SSE
CZ-2C R/B 3.8 04:15:09 10° NNE 04:17:52 41° N 04:17:52 41° N
ALOS 4.2 04:15:48 10° NNE 04:19:54 29° E 04:23:59 10° SSE
ADEOS II 3.6 04:20:46 10° N 04:23:28 22° NNW 04:23:28 22° NNW
Cosmos 2322 Rocket 4.4 04:22:57 10° NNW 04:27:05 20° NNE 04:31:11 10° ENE
Cosmos 468 4.4 04:27:55 52° SW 04:29:15 84° WNW 04:34:39 10° NNE
ERS-2 3.1 04:28:08 10° SSE 04:30:26 37° SSE 04:30:26 37° SSE
Tsikada Rocket 4.1 04:31:21 48° W 04:32:14 52° WNW 04:38:17 10° N
Resurs 1-4 Rocket 4.2 04:29:58 10° NNW 04:31:02 12° NNW 04:31:02 12° NNW
COSMOS 2441 4.3 04:28:43 10° N 04:33:32 60° WNW 04:33:43 59° W
ADEOS Rocket 2.6 04:29:25 10° S 04:34:51 63° WSW 04:40:26 10° NNW
Cosmos 1484 Rocket 4.5 04:31:18 10° NNE 04:34:54 34° E 04:38:25 10° SSE
Cosmos 1867 4.1 04:36:17 40° NW 04:37:05 42° NNW 04:42:17 10° NE
CZ-2D R/B 4.3 04:36:07 10° NNW 04:36:47 11° NNW 04:36:47 11° NNW
Cosmos 1689 Rocket 4.3 04:38:19 10° SE 04:40:52 27° ENE 04:43:24 10° N
PSLV R/B 3.4 04:37:49 10° NNE 04:42:07 88° WNW 04:43:54 35° SSW
Cosmos 2369 4.0 04:37:54 10° NNW 04:43:36 67° NE 04:49:13 10° SE
Cosmos 1833 Rocket 4.5 04:39:08 10° SSE 04:44:01 31° ESE 04:48:56 10° NE
SAR-Lupe-4 4.1 04:42:13 10° SSE 04:45:43 58° ENE 04:49:16 10° N
ARIANE 5 R/B 3.5 04:43:18 10° N 04:46:59 29° NW 04:46:59 29° NW
In-Cosmos 22 4.0 04:42:41 10° S 04:48:01 88° ESE 04:53:30 10° NNE
Meteor 1-16 Rocket 3.9 04:43:28 10° NNW 04:48:46 67° W 04:54:01 10° S
Cosmos 1975 Rocket 4.0 04:49:54 32° NW 04:49:54 32° NW 04:52:52 10° N
Cosmos 2180 Rocket 4.4 04:43:18 10° NNW 04:49:37 74° W 04:55:48 10° S
Lacrosse 5 rocket 4.2 04:48:56 10° SE 04:49:43 11° SE 04:50:30 10° ESE
NOSS 3-2 (C) 3.9 04:47:17 16° SSW 04:51:56 59° SE 04:58:30 10° NE
Cosmos 1674 2.9 04:49:24 10° S 04:53:12 70° E 04:57:01 10° NNE
CZ-4B R/B 1.3 04:51:10 10° SSE 04:54:38 81° WSW 04:57:36 14° NNW
Meteor 1-31 Rocket 4.0 04:54:28 10° NNE 04:58:16 44° E 05:02:02 10° S
Cosmos 1356 Rocket 4.1 04:54:16 10° NNW 04:59:31 35° SW 05:02:23 10° SSW
Cosmos 1331 Rocket 4.5 04:59:52 36° WSW 04:59:52 36° WSW 05:04:26 10° SSW
Abrixas rocket 3.3 05:00:44 28° SSE 05:00:44 28° SSE 05:03:00 10° ESE
SL-16 R/B 3.9 04:56:06 10° NNW 05:01:01 29° NE 05:05:55 10° E
Nadezhda 4 Rocket 4.3 04:55:35 10° S 05:01:37 68° E 05:07:45 10° NNE
Cosmos 2333 Rocket 4.5 04:58:23 10° NNW 05:01:44 16° NNE 05:05:03 10° NE
Cosmos 1707 3.7 05:02:53 31° NW 05:02:53 31° NW 05:05:33 10° N
MSX 4.3 04:57:18 10° N 05:02:37 40° WNW 05:04:41 30° WSW
SAR-Lupe-1 4.0 04:59:52 10° SSE 05:03:27 83° ENE 05:07:03 10° NNW
ADEOS 3.8 04:58:50 10° NNE 05:04:05 72° ESE 05:09:19 10° S
GP-B 3.3 05:02:37 30° SW 05:04:20 44° W 05:08:37 10° NNW
Cosmos 1726 Rocket 4.2 05:05:11 10° N 05:09:36 59° ENE 05:14:00 10° SSE
COSMOS 2406 3.8 05:04:49 10° SSW 05:10:21 58° ESE 05:15:55 10° NE
Cosmos 1626 3.1 05:07:07 10° S 05:10:41 48° E 05:14:16 10° NNE
Cosmos 1656 3.9 05:08:14 14° NW 05:12:58 46° WSW 05:18:22 10° S
CENTAUR R/B 2.8 05:07:58 12° SW 05:13:42 75° SE 05:21:03 10° NE
IDEFIX/ARIANE 42P 3.7 05:09:39 10° N 05:13:46 24° NW 05:14:15 24° WNW
CREW DRAGON DEMO-1 DEB 2.9 05:17:08 46° SW 05:17:46 62° S 05:20:45 10° E
Cosmos 2237 Rocket 4.4 05:15:16 10° NNW 05:17:52 13° N 05:20:29 10° NNE
Cosmos 1400 Rocket 3.5 05:14:14 10° N 05:18:12 56° ENE 05:22:04 10° SSE
Cosmos 1697 Rocket 2.7 05:16:39 10° NW 05:22:15 65° WSW 05:27:51 10° SSE
Cosmos 1606 Rocket 3.5 05:19:22 10° NNW 05:23:52 86° WSW 05:28:20 10° S
PAYLOAD A 4.4 05:20:07 10° N 05:24:46 40° WNW 05:28:55 13° SW
Cosmos 1025 Rocket 3.5 05:22:51 20° SW 05:25:25 38° WNW 05:29:34 10° N
Cosmos 44 Rocket 4.0 05:23:31 23° WNW 05:26:01 37° WSW 05:30:44 10° S
Cosmos 1302 Rocket 4.4 05:23:01 10° NW 05:27:56 39° WSW 05:32:48 10° S
Cosmos 1269 Rocket 4.0 05:22:53 10° SSW 05:28:12 77° WNW 05:33:34 10° NNE
Cosmos 2228 2.9 05:26:02 10° NNW 05:30:22 71° W 05:34:44 10° S
Cosmos 2360 Rocket 4.1 05:26:24 10° NNW 05:31:02 25° NE 05:35:38 10° E
COSMO-SKYMED 1 2.5 05:27:32 10° S 05:31:52 73° WSW 05:36:15 10° NNW
Cosmos 2344 3.6 05:25:56 15° WSW 05:32:22 72° NW 05:41:04 10° NE
PSLV R/B 3.9 05:30:08 10° S 05:34:20 75° WSW 05:38:34 10° NNW
Lacrosse 4 Rocket 1.3 05:34:06 10° SSW 05:38:09 84° SE 05:42:14 10° NE
USA 238 DEB 3.7 05:32:45 13° WSW 05:38:46 71° NW 05:45:49 10° NE
USA 238 3.7 05:32:49 13° WSW 05:38:52 71° NW 05:45:55 10° NE
FENGYUN 3A 3.6 05:34:37 10° NNE 05:40:02 68° WNW 05:45:26 10° SSW
CZ-2C R/B 3.1 05:35:54 10° N 05:40:27 34° WNW 05:44:52 10° SW
SL-16 R/B 4.3 05:38:19 10° NW 05:41:04 13° N 05:43:49 10° NNE
ISS -0.9 05:40:17 10° S 05:42:21 16° SE 05:44:26 10° ESE
Cosmos 1980 Rocket 2.1 05:37:34 10° NW 05:43:11 78° WSW 05:48:46 10° SSE
NOSS 3-2 (A) 3.6 05:39:06 14° WSW 05:44:14 63° NNW 05:51:10 10° NE
Cosmos 1315 Rocket 4.3 05:40:44 10° N 05:44:38 41° ENE 05:48:33 10° SE
Cosmos 1908 4.3 05:42:53 10° NW 05:46:02 23° W 05:49:11 10° SW
Cosmos 2360 4.3 05:41:20 10° NW 05:46:53 54° WSW 05:52:24 10° S
Intercosmos 24 4.2 05:43:50 10° NNW 05:48:04 41° W 05:51:30 10° SSW
Cosmos 2058 Rocket 3.1 05:44:45 10° N 05:49:18 89° ENE 05:53:48 10° S
SL-14 R/B 3.2 05:47:36 10° SSW 05:51:35 75° WNW 05:55:38 10° N
USA 234 3.4 05:45:14 10° E 05:51:43 69° N 05:57:49 12° WNW
USA 290 4.0 05:49:20 10° S 05:52:18 36° ESE 05:55:20 10° NE
Cosmos 1536 Rocket 4.4 05:50:32 10° SW 05:54:27 29° WNW 05:58:24 10° N
CZ-4B R/B 2.8 05:50:38 10° NNE 05:54:32 85° WNW 05:58:37 10° SSW
deb Chang Zheng 4 3.7 05:51:41 10° N 05:55:47 47° WNW 05:59:52 10° SW
ALOS 2.6 05:53:02 10° N 05:57:30 45° WNW 06:01:56 10° SW
ATLAS 3B R/B 3.4 05:51:32 10° SSW 05:57:54 56° SE 06:04:25 10° NE
Cosmos 2219 Rocket 4.2 05:55:19 10° NNW 05:59:31 21° NNE 06:03:42 10° ENE
Cosmos 2026 Rocket 4.2 05:53:12 10° S 05:59:35 84° E 06:06:01 10° NNE
Cosmos 2195 Rocket 4.5 05:57:25 10° SSW 06:03:39 81° WNW 06:09:52 10° N
ASTRO F (AKARI) 4.5 06:00:42 10° NNE 06:04:22 81° WNW 06:07:51 10° SSW
YAOGAN 6 4.5 06:00:55 10° NNE 06:04:23 36° E 06:07:49 10° SSE
CZ-2C R/B 3.9 05:59:26 10° SE 06:04:44 45° ENE 06:10:05 10° N
Cosmos 2278 3.8 05:59:55 10° NW 06:05:27 55° WSW 06:10:56 10° S
ERS-2 4.1 06:04:29 10° WSW 06:05:01 11° WSW 06:05:01 11° WSW
Cosmos 1892 Rocket 3.5 06:04:03 10° SSW 06:08:24 79° WNW 06:12:48 10° N
Cosmos 1484 Rocket 3.6 06:05:50 10° N 06:09:14 29° WNW 06:12:36 10° SW
Cosmos 1992 Rocket 4.5 06:06:32 10° NW 06:11:22 39° WSW 06:16:11 10° S
Cosmos 1300 3.4 06:08:19 10° NNW 06:11:46 33° W 06:15:13 10° SSW
Cosmos 1689 Rocket 3.4 06:09:45 10° SW 06:12:03 20° W 06:14:21 10° NW
Cosmos 2322 Rocket 2.9 06:06:48 10° NNW 06:12:26 55° NE 06:17:59 10° SE
Okean O Rocket 3.5 06:12:37 10° NNE 06:16:39 35° E 06:20:40 10° SSE
Meteor 1-24 Rocket 3.8 06:13:14 10° SSW 06:18:47 64° WNW 06:24:37 10° N
SKYMED 2 4.5 06:16:29 10° SSW 06:20:12 27° W 06:23:57 10° NW
ADEOS Rocket 4.4 06:20:16 10° W 06:21:44 11° W 06:23:13 10° WNW
CZ-4B R/B 4.4 06:21:06 10° NNE 06:26:20 47° E 06:31:27 10° S
H-2A R/B 2.7 06:22:44 10° NNE 06:26:32 80° WNW 06:30:21 10° SSW
Meteor 2-1 Rocket 4.3 06:21:21 10° NNW 06:27:00 83° W 06:32:44 10° S
Cosmos 2251 Rocket 3.6 06:21:45 10° SSW 06:27:08 82° WNW 06:32:31 10° NNE
Cosmos 1833 Rocket 2.8 06:22:04 10° SW 06:27:39 60° NW 06:33:17 10° NNE
Lacrosse 5 rocket 2.0 06:24:24 10° SW 06:28:00 50° SE 06:31:46 10° ENE
H-2A R/B 2.8 06:24:29 10° NNE 06:29:00 83° ESE 06:33:21 10° SSW
Cosmos 1674 4.4 06:26:59 10° W 06:29:12 15° WNW 06:31:26 10° NNW
Meteor 2-15 4.4 06:24:18 10° NNW 06:30:27 79° W 06:36:30 10° S
CZ-3 R/B 4.4 06:36:26 10° SW 06:41:13 12° SSW 06:44:32 10° S
